Location: Kershaw
(34.5481°N, 80.5823°W)
Time: 00:11:44
(UTC+00:00)

Altair - Pass Details

Date: 08 October 2022
Orbit: 1501 x 1682 km, 47.2° (Epoch: 05 December)

Event Time Altitude Azimuth Distance (km) Brightness Sun altitude
Exits shadow 06:30:48 16° 84° (E) 3,368 9.4 -55.8°
Drops below altitude 10° 06:32:47 10° 75° (ENE) 3,816 9.8 -55.6°
Sets 06:36:36 0° 64° (ENE) 4,834 10.6 -55.1°
